sat.trackr.live / text

‹ back to catalog

STRIX-2

NORAD 62406 · 2024-248A

PAYLOAD ACTIVE UNKNOWN

§ Identity

Operator
Country
JPN
Launch date
2024-12-21
Launch site
RLLB
Launch vehicle
Mass (kg)
RCS (m²)

External: N2YO · Heavens-Above · Gunter

§ Orbital elements

Epoch: 2026-05-25T04:36:51.030720Z

Period
95.45 min
Inclination
97.6277°
Eccentricity
0.0017726
Mean motion
15.08583093 rev/d
Perigee alt
528.3 km
Apogee alt
552.8 km
Semi-major
6,918.7 km
B*
3.3006e-4
RAAN
100.9742°
Arg perigee
57.4526°
Mean anomaly
302.8412°
Rev number
7,812

§ Raw data

STRIX-21 62406U 24248A   26145.19225730  .00005113  00000+0  33006-3 0  99992 62406  97.6277 100.9742 0017726  57.4526 302.8412 15.08583093 78123

JSON: /api/v1/satellites/62406 · /tle

For live sub-satellite position, see the globe view (requires WebGL).

§ Visibility from observer

Set your observer location to see the next 7 days of passes ≥ 10°. The values pass through the URL so the page stays shareable.

No JS? Fill the form by hand. The geolocation button needs JavaScript.

§ Radio — SatNOGS DB

ModeDescriptionDownlinkUplink
FM S-band telemetry 2.277 GHz

1 transmitter · refreshed weekly from db.satnogs.org